Regional Weather Roundup
Issued by NWS

Home | Current Version | Previous Version | Graphics & Text | Print | Product List | Glossary On
Versions: 1 2 3 4 5 6 7 8 9 10 11 12 13 14 15 16 17 18 19 20 21 22 23 24 25 26 27 28 29 30 31 32 33 34 35 36 37 38 39 40 41 42 43 44 45 46 47 48 49 50
000
ASUS43 KIND 030659
RWRIN

WEATHER ROUNDUP FOR INDIANA
NATIONAL WEATHER SERVICE INDIANAPOLIS IN
300 AM EDT FRI JUL 03 2015

NOTE: "FAIR" INDICATES FEW OR NO CLOUDS BELOW 12,000 FEET WITH NO
SIGNIFICANT WEATHER AND/OR OBSTRUCTIONS TO VISIBILITY.

* - STATION DOES NOT REPORT WEATHER SUCH AS PRECIPITATION OR FOG.

+ - STATION NOT QUALITY CONTROLLED BY THE NATIONAL WEATHER SERVICE.
    USE DATA WITH CAUTION...ESPECIALLY DEWPOINT AND RELATIVE
    HUMIDITY OBSERVATIONS.

INZ001>003-010>013-019-020-030800-
NORTHWEST INDIANA

CITY           SKY/WX    TMP DP  RH WIND       PRES   REMARKS
MONTICELLO +   CLOUDY    63  59  86 NE6       29.94S
RENSSELAER +   CLOUDY    61  59  94 NE6       29.95F

$$

LMZ046-743>745-030800-
SOUTHERN LAKE MICHIGAN

STATION/POSITION TIME  TEMP    WIND        PRES    WAVE
                       AIR SEA DIR/SP/G            HT
                 (UTC) (F)     (DEG/KT/KT) (MB)    (FT)
BURNS HARBOR     0600   61      70/  9/ 10 1015.6F
MICHIGAN CITY    0600   59      50/  5/  6   N/A
5NW MICH CITY    0600   60 62  100/  6/ 10   N/A     3

$$

INZ004-005-014>016-021>024-030800-
NORTH CENTRAL INDIANA

CITY           SKY/WX    TMP DP  RH WIND       PRES   REMARKS
GOSHEN         PTCLDY    58  54  86 CALM      29.98S
SOUTH BEND     PTCLDY    58  54  86 CALM      29.99F

$$

INZ006>009-017-018-025>027-030800-
NORTHEAST INDIANA

CITY           SKY/WX    TMP DP  RH WIND       PRES   REMARKS
ANGOLA *+        N/A     55  54  94 CALM      30.00S
FORT WAYNE     MOCLDY    59  54  83 E6        29.98S

$$

INZ028-029-035-036-043>045-051>053-030800-
WEST CENTRAL INDIANA

CITY           SKY/WX    TMP DP  RH WIND       PRES   REMARKS
CRAWFORDSVL +  CLOUDY    64  56  75 NE6       29.92S
GREENCASTLE +  CLOUDY    68  59  73 NE6       29.91S
LAFAYETTE      CLOUDY    64  58  80 NE8       29.93S
TERRE HAUTE    CLOUDY    70  64  81 NE7       29.89F

$$

INZ030>032-037>040-046>048-054>057-064-065-030800-
CENTRAL INDIANA

CITY           SKY/WX    TMP DP  RH WIND       PRES   REMARKS
INDIANAPOLIS   CLOUDY    69  58  67 NE15      29.89S
-EAGLE CREEK   CLOUDY    68  59  73 E7        29.91S
KOKOMO *+      PTCLDY    63  55  77 E8        29.94F
MT COMFORT *+  CLOUDY    64  55  72 NE9       29.92F
SHELBYVILLE    CLOUDY    70  62  76 NE10      29.89F

$$

INZ033-034-041-042-049-050-058-059-030800-
EAST CENTRAL INDIANA

CITY           SKY/WX    TMP DP  RH WIND       PRES   REMARKS
MUNCIE         MOCLDY    63  56  78 E7        29.94F

$$

INZ060-061-067>069-081>083-085>088-030800-
SOUTHWEST INDIANA

CITY           SKY/WX    TMP DP  RH WIND       PRES   REMARKS
EVANSVILLE     PTCLDY    72  69  90 N3        29.84F FOG
HUNTINGBURG *+ MOCLDY    70  66  88 N5        29.85F VSB 1

$$

INZ062-063-066-070>080-084-089>092-030800-
SOUTH CENTRAL AND SOUTHEAST INDIANA

CITY           SKY/WX    TMP DP  RH WIND       PRES   REMARKS
BLOOMINGTON    CLOUDY    71  66  84 NE6       29.88F
MADISON *+     CLOUDY    70  66  88 NE7       29.89F

$$



USA.gov is the U.S. government's official web portal to all federal, state and local government web resources and services.